Location: Newark
(48.8833°N, 0.9236°W)
Time: 20:24:02
(UTC+00:00)

Tiros 1 despin weight - Pass Details

Date: 19 November 2019
Orbit: 594 x 642 km, 48.2° (Epoch: 05 December)

Event Time Altitude Azimuth Distance (km) Brightness Sun altitude
Rises 15:54:23 0° 267° (W) 2,833 ? 2.6°
Reaches altitude 10° 15:56:40 10° 267° (W) 1,935 ? 2.3°
Maximum altitude 16:01:07 84° 180° (S) 611 ? 1.7°
Drops below altitude 10° 16:05:37 10° 93° (E) 1,959 ? 1.1°
Sets 16:07:55 0° 93° (E) 2,871 ? 0.8°
